TimeCET,TemperatureF,Dew PointF,Humidity,Sea Level PressureIn,VisibilityMPH,Wind Direction,Wind SpeedMPH,Gust SpeedMPH,PrecipitationIn,Events,Conditions,WindDirDegrees,DateUTC
12:55 AM,30.2,30.2,100,29.50,0.0,SW,18.4,-,N/A,Fog,Light Freezing Fog,230,2013-11-05 23:55:00
1:00 AM,30,29,96,,0,SW,18.4,,,Fog,Heavy Fog,230,2013-11-06 00:00:00
1:55 AM,30.2,28.4,93,29.50,-9999.0,SW,16.1,-,N/A,,Clear,220,2013-11-06 00:55:00
2:55 AM,30.2,26.6,86,29.53,-9999.0,SW,17.3,-,N/A,,Clear,230,2013-11-06 01:55:00
3:55 AM,30.2,26.6,86,29.53,-9999.0,SW,13.8,-,N/A,,Clear,220,2013-11-06 02:55:00
4:00 AM,31,26,73,,9,SW,13.8,,,,Partly Cloudy,220,2013-11-06 03:00:00
4:55 AM,32.0,24.8,75,29.56,-9999.0,SSW,6.9,-,N/A,,Clear,210,2013-11-06 03:55:00
5:55 AM,32.0,21.2,64,29.59,6.2,SSW,5.8,-,N/A,,Mostly Cloudy,210,2013-11-06 04:55:00
6:55 AM,32.0,23.0,69,29.62,6.2,SSW,2.3,-,N/A,,Mostly Cloudy,200,2013-11-06 05:55:00
7:55 AM,32.0,23.0,69,29.62,6.2,SSW,3.5,-,N/A,,Mostly Cloudy,210,2013-11-06 06:55:00
8:55 AM,32.0,24.8,75,29.68,6.2,Calm,Calm,-,N/A,,Mostly Cloudy,0,2013-11-06 07:55:00
9:55 AM,33.8,24.8,70,29.68,6.2,Variable,3.5,-,N/A,,Scattered Clouds,0,2013-11-06 08:55:00
10:00 AM,34,25,58,,16,,3.5,,,,Scattered Clouds,,2013-11-06 09:00:00
10:55 AM,35.6,23.0,60,29.71,6.2,Calm,Calm,-,N/A,,Scattered Clouds,0,2013-11-06 09:55:00
11:55 AM,35.6,24.8,65,29.71,6.2,SSW,3.5,-,N/A,,Scattered Clouds,200,2013-11-06 10:55:00
12:55 PM,37.4,28.4,70,29.74,6.2,NNW,2.3,-,N/A,,Scattered Clouds,330,2013-11-06 11:55:00
1:00 PM,37,28,59,,25,NNW,2.3,,,,Mostly Cloudy,330,2013-11-06 12:00:00
1:55 PM,39.2,30.2,70,29.74,6.2,Calm,Calm,-,N/A,,Partly Cloudy,0,2013-11-06 12:55:00
2:55 PM,39.2,28.4,65,29.74,6.2,WNW,15.0,-,N/A,,Partly Cloudy,300,2013-11-06 13:55:00
3:55 PM,41.0,26.6,57,29.77,6.2,WNW,11.5,-,N/A,,Partly Cloudy,300,2013-11-06 14:55:00
4:00 PM,41,27,45,,31,WNW,11.5,,,,Scattered Clouds,300,2013-11-06 15:00:00
4:55 PM,42.8,26.6,53,29.80,-9999.0,North,2.3,-,N/A,,Clear,350,2013-11-06 15:55:00
5:55 PM,37.4,28.4,70,29.83,-9999.0,North,5.8,-,N/A,,Clear,10,2013-11-06 16:55:00
6:55 PM,39.2,24.8,56,29.83,-9999.0,SE,6.9,-,N/A,,Clear,130,2013-11-06 17:55:00
7:00 PM,38,25,48,,25,SE,6.9,,,,,130,2013-11-06 18:00:00
7:55 PM,37.4,26.6,65,29.86,-9999.0,South,5.8,-,N/A,,Clear,190,2013-11-06 18:55:00
8:55 PM,37.4,23.0,56,29.89,-9999.0,South,6.9,-,N/A,,Clear,190,2013-11-06 19:55:00
9:55 PM,37.4,24.8,60,29.92,-9999.0,SSW,6.9,-,N/A,,Clear,200,2013-11-06 20:55:00
10:00 PM,37,26,52,,25,SSW,6.9,,,,,200,2013-11-06 21:00:00
10:55 PM,37.4,26.6,65,29.92,-9999.0,South,4.6,-,N/A,,Clear,190,2013-11-06 21:55:00
11:55 PM,37.4,24.8,60,29.95,-9999.0,SSW,6.9,-,N/A,,Clear,200,2013-11-06 22:55:00